EW1620 Weather Reports


Display with metric or nautical units.
time (UTC)temp
F
wind
direction
speed
MPH
gust
MPH
rain 1hr
in
rain 24hr
in
rain mn
in
humidity
%
barometer
mb
20260901010041 67 292 10.0 29.0 0.00 0.00 0.00 47 1015.6
20260901005526 67 20 11.0 32.0 0.00 0.00 0.00 46 1015.8
20260901005024 67 15 17.0 32.0 0.00 0.00 0.00 45 1016.1
20260901004523 67 339 15.0 27.0 0.00 0.00 0.00 44 1016.1
20260901004022 67 300 12.0 21.0 0.00 0.00 0.00 45 1016.2
20260901003521 67 336 12.0 21.0 0.00 0.00 0.00 46 1016.2
20260901002515 67 320 4.0 23.0 0.00 0.00 0.00 49 1016.5
20260901002015 67 9 10.0 23.0 0.00 0.00 0.00 48 1016.6
20260901001513 66 302 6.0 15.0 0.00 0.00 0.00 50 1017.0
20260901001012 66 300 6.0 20.0 0.00 0.00 0.00 51 1017.1
20260901000510 66 9 9.0 20.0 0.00 0.00 0.00 51 1017.3
20260901000009 65 329 8.0 25.0 0.00 0.00 0.00 52 1017.5
20260831235510 65 292 9.0 17.0 0.00 0.00 0.00 53 1017.7
20260831235007 65 331 4.0 19.0 0.00 0.00 0.00 56 1017.7
20260831234505 64 312 10.0 19.0 0.00 0.00 0.00 57 1017.7
20260831234004 63 306 2.0 10.0 0.00 0.00 0.00 61 1017.9
20260831233502 62 300 6.0 11.0 0.00 0.00 0.00 64 1017.9
20260831232559 60 16 4.0 13.0 0.00 0.00 0.00 76 1018.1
20260831232058 59 350 4.0 13.0 0.00 0.00 0.00 83 1018.2
20260831231610 58 21 3.0 10.0 0.00 0.00 0.00 89 1018.6
20260831231058 57 327 2.0 5.0 0.00 0.00 0.00 92 1018.7
20260831230554 56 53 0.0 3.0 0.00 0.00 0.00 93 1018.9
20260831230053 55 55 0.0 4.0 0.00 0.00 0.00 94 1019.1
20260831225550 54 141 0.0 4.0 0.00 0.00 0.00 95 1019.1
20260831225049 54 142 0.0 3.0 0.00 0.00 0.00 95 1019.3
20260831224548 53 59 1.0 3.0 0.00 0.00 0.00 95 1019.4
20260831224046 51 211 1.0 3.0 0.00 0.00 0.00 96 1019.4
20260831223546 50 340 0.0 2.0 0.00 0.00 0.00 95 1019.5
20260831222549 49 340 0.0 2.0 0.00 0.00 0.00 95 1019.6
20260831222048 48 340 0.0 2.0 0.00 0.00 0.00 95 1019.7
20260831221546 47 340 0.0 2.0 0.00 0.00 0.00 94 1019.7
20260831221045 46 340 0.0 2.0 0.00 0.00 0.00 94 1019.7
20260831220543 45 340 0.0 1.0 0.00 0.00 0.00 93 1019.9
20260831220042 45 341 0.0 2.0 0.00 0.00 0.00 93 1019.9
20260831215540 44 207 0.0 2.0 0.00 0.00 0.00 93 1020.0
20260831215039 43 240 0.0 1.0 0.00 0.00 0.00 93 1020.0
20260831214537 43 240 0.0 2.0 0.00 0.00 0.00 93 1020.1
20260831214038 42 242 0.0 2.0 0.00 0.00 0.00 92 1020.2
20260831213535 42 242 0.0 2.0 0.00 0.00 0.00 92 1020.3
20260831212532 40 265 0.0 3.0 0.00 0.00 0.00 91 1020.3
20260831212030 40 262 0.0 2.0 0.00 0.00 0.00 91 1020.2
20260831211529 40 263 0.0 2.0 0.00 0.00 0.00 90 1020.2
20260831211030 40 262 0.0 2.0 0.00 0.00 0.00 90 1020.3
20260831210531 40 262 0.0 2.0 0.00 0.00 0.00 90 1020.2
20260831210026 39 222 0.0 3.0 0.00 0.00 0.00 90 1020.3
20260831205527 39 222 0.0 3.0 0.00 0.00 0.00 90 1020.3
20260831205024 39 271 0.0 2.0 0.00 0.00 0.00 89 1020.2
20260831204523 39 271 0.0 2.0 0.00 0.00 0.00 89 1020.3
20260831204023 39 271 0.0 2.0 0.00 0.00 0.00 89 1020.1
20260831203522 40 320 0.0 2.0 0.00 0.00 0.00 89 1020.2
20260831202523 40 279 0.0 3.0 0.00 0.00 0.00 89 1020.3
20260831202026 39 298 0.0 3.0 0.00 0.00 0.00 89 1020.2
20260831201532 39 268 0.0 2.0 0.00 0.00 0.00 89 1020.2
20260831201020 39 72 0.0 2.0 0.00 0.00 0.00 88 1020.3
20260831200521 40 108 0.0 2.0 0.00 0.00 0.00 88 1020.4
20260831200021 40 78 0.0 1.0 0.00 0.00 0.00 88 1020.6
20260831195518 40 95 0.0 1.0 0.00 0.00 0.00 88 1020.7
20260831195019 40 95 0.0 1.0 0.00 0.00 0.00 88 1020.7
20260831194516 40 94 0.0 1.0 0.00 0.00 0.00 88 1020.8
20260831194015 40 94 0.0 1.0 0.00 0.00 0.00 88 1020.9
20260831193515 40 94 0.0 2.0 0.00 0.00 0.00 88 1020.8
20260831192513 40 158 0.0 1.0 0.00 0.00 0.00 87 1020.9
20260831192013 40 158 0.0 0.0 0.00 0.00 0.00 87 1021.0
20260831191513 40 158 0.0 0.0 0.00 0.00 0.00 87 1021.0
20260831191012 40 158 0.0 0.0 0.00 0.00 0.00 87 1020.9
20260831190513 40 158 0.0 1.0 0.00 0.00 0.00 87 1020.9
20260831190011 40 158 0.0 1.0 0.00 0.00 0.00 87 1020.9
20260831185512 40 158 0.0 1.0 0.00 0.00 0.00 87 1020.9
20260831185010 40 158 0.0 1.0 0.00 0.00 0.00 87 1021.0
20260831184512 40 158 0.0 1.0 0.00 0.00 0.00 87 1020.9
20260831184008 40 158 0.0 2.0 0.00 0.00 0.00 87 1020.9
20260831183507 41 158 0.0 2.0 0.00 0.00 0.00 87 1021.1
20260831182508 41 95 0.0 1.0 0.00 0.00 0.00 87 1021.0
20260831182007 41 95 0.0 1.0 0.00 0.00 0.00 87 1021.1
20260831181506 41 95 0.0 1.0 0.00 0.00 0.00 87 1021.3
20260831181005 41 95 0.0 1.0 0.00 0.00 0.00 86 1021.5
20260831180502 41 95 0.0 0.0 0.00 0.00 0.00 86 1021.6
20260831180002 41 95 0.0 0.0 0.00 0.00 0.00 86 1021.7
20260831175503 41 95 0.0 1.0 0.00 0.00 0.00 86 1021.7
20260831175001 41 95 0.0 1.0 0.00 0.00 0.00 86 1021.8
20260831174604 41 95 0.0 1.0 0.00 0.00 0.00 86 1021.8
20260831174100 41 95 0.0 1.0 0.00 0.00 0.00 86 1021.9
20260831173601 41 95 0.0 1.0 0.00 0.00 0.00 86 1022.0
20260831173158 41 95 0.0 1.0 0.00 0.00 0.00 86 1022.1
20260831172555 41 95 0.0 0.0 0.00 0.00 0.00 86 1022.1
20260831172054 41 95 0.0 1.0 0.00 0.00 0.00 86 1022.2
20260831171559 41 95 0.0 1.0 0.00 0.00 0.00 86 1022.3
20260831171053 41 95 0.0 1.0 0.00 0.00 0.00 85 1022.3
20260831170553 42 95 0.0 1.0 0.00 0.00 0.00 85 1022.3
20260831170054 42 95 0.0 0.0 0.00 0.00 0.00 85 1022.4
20260831165552 42 95 0.0 0.0 0.00 0.00 0.00 85 1022.5
20260831165051 42 95 0.0 0.0 0.00 0.00 0.00 85 1022.6
20260831164549 42 95 0.0 0.0 0.00 0.00 0.00 85 1022.7
20260831164048 42 95 0.0 1.0 0.00 0.00 0.00 85 1022.8
20260831163548 42 95 0.0 1.0 0.00 0.00 0.00 85 1022.9
20260831163147 42 95 0.0 1.0 0.00 0.00 0.00 85 1023.1
20260831162547 42 95 0.0 0.0 0.00 0.00 0.00 85 1023.1
20260831162048 42 95 0.0 1.0 0.00 0.00 0.00 85 1023.1
20260831161549 42 95 0.0 1.0 0.00 0.00 0.00 85 1023.3
20260831161045 42 95 0.0 0.0 0.00 0.00 0.00 85 1023.4
20260831160542 42 95 0.0 1.0 0.00 0.00 0.00 84 1023.4
20260831160041 42 324 0.0 1.0 0.00 0.00 0.00 84 1023.5
20260831155540 42 323 0.0 1.0 0.00 0.00 0.00 84 1023.7
20260831155039 42 323 0.0 1.0 0.00 0.00 0.00 84 1023.7
20260831154541 43 323 0.0 1.0 0.00 0.00 0.00 84 1023.8
20260831154036 43 323 0.0 0.0 0.00 0.00 0.00 84 1023.8
20260831153536 43 323 0.0 1.0 0.00 0.00 0.00 83 1023.8
20260831153135 43 323 0.0 1.0 0.00 0.00 0.00 83 1023.9
20260831152536 43 323 0.0 1.0 0.00 0.00 0.00 83 1023.9
20260831152036 43 323 0.0 1.0 0.00 0.00 0.00 83 1024.0
20260831151536 43 332 0.0 1.0 0.00 0.00 0.00 83 1024.0
20260831151035 43 332 0.0 1.0 0.00 0.00 0.00 83 1024.0
20260831150533 43 332 0.0 0.0 0.00 0.00 0.00 83 1024.0
20260831150033 44 332 0.0 0.0 0.00 0.00 0.00 83 1024.1
20260831145534 44 332 0.0 0.0 0.00 0.00 0.00 82 1024.1
20260831145034 44 332 0.0 1.0 0.00 0.00 0.00 82 1024.2
20260831144530 44 332 0.0 1.0 0.00 0.00 0.00 82 1024.3
20260831144030 44 332 0.0 1.0 0.00 0.00 0.00 82 1024.3
20260831143536 44 332 0.0 1.0 0.00 0.00 0.00 82 1024.4
20260831143129 44 332 0.0 1.0 0.00 0.00 0.00 82 1024.4
20260831142532 44 332 0.0 1.0 0.00 0.00 0.00 82 1024.4
20260831142030 45 332 0.0 1.0 0.00 0.00 0.00 82 1024.5
20260831141530 45 332 0.0 0.0 0.00 0.00 0.00 82 1024.6
20260831141029 45 332 0.0 0.0 0.00 0.00 0.00 82 1024.6
20260831140528 45 332 0.0 0.0 0.00 0.00 0.00 82 1024.7
20260831140027 45 332 0.0 1.0 0.00 0.00 0.00 81 1024.9
20260831135526 45 332 0.0 1.0 0.00 0.00 0.00 81 1025.0
20260831135026 45 332 0.0 1.0 0.00 0.00 0.00 81 1025.1
20260831134525 46 332 0.0 1.0 0.00 0.00 0.00 81 1025.1
20260831134024 46 332 0.0 0.0 0.00 0.00 0.00 81 1025.2
20260831133523 46 332 0.0 0.0 0.00 0.00 0.00 81 1025.3
20260831133124 46 332 0.0 0.0 0.00 0.00 0.00 81 1025.3
20260831132518 46 332 0.0 0.0 0.00 0.00 0.00 81 1025.4
20260831132018 47 332 0.0 0.0 0.00 0.00 0.00 81 1025.4
20260831131518 47 332 0.0 0.0 0.00 0.00 0.00 81 1025.5
20260831131019 47 332 0.0 0.0 0.00 0.00 0.00 81 1025.6
20260831130517 47 332 0.0 1.0 0.00 0.00 0.00 81 1025.7
20260831130016 47 332 0.0 0.0 0.00 0.00 0.00 80 1025.7
20260831125517 47 332 0.0 0.0 0.00 0.00 0.00 80 1025.8
20260831125015 48 332 0.0 0.0 0.00 0.00 0.00 80 1025.9
20260831124515 48 332 0.0 0.0 0.00 0.00 0.00 80 1026.0
20260831124013 48 332 0.0 0.0 0.00 0.00 0.00 80 1025.9
20260831123516 48 332 0.0 0.0 0.00 0.00 0.00 79 1026.0
20260831123113 49 332 0.0 1.0 0.00 0.00 0.00 79 1026.0
20260831122516 49 332 0.0 1.0 0.00 0.00 0.00 79 1026.1
20260831122016 49 332 0.0 1.0 0.00 0.00 0.00 79 1026.1
20260831121515 49 332 0.0 1.0 0.00 0.00 0.00 79 1026.1
20260831121019 49 332 0.0 0.0 0.00 0.00 0.00 79 1026.1
20260831120515 50 332 0.0 0.0 0.00 0.00 0.00 79 1026.2
20260831120013 50 332 0.0 1.0 0.00 0.00 0.00 79 1026.2
20260831115513 50 332 0.0 1.0 0.00 0.00 0.00 79 1026.2
20260831115013 50 332 0.0 0.0 0.00 0.00 0.00 79 1026.3
20260831114516 51 332 0.0 0.0 0.00 0.00 0.00 79 1026.3
20260831114012 51 332 0.0 0.0 0.00 0.00 0.00 79 1026.3
20260831113512 51 332 0.0 0.0 0.00 0.00 0.00 79 1026.5
20260831113113 51 332 0.0 1.0 0.00 0.00 0.00 79 1026.5
20260831112523 52 332 0.0 1.0 0.00 0.00 0.00 79 1026.4
20260831112018 52 332 0.0 1.0 0.00 0.00 0.00 79 1026.5
20260831111519 52 332 0.0 1.0 0.00 0.00 0.00 79 1026.5
20260831111017 52 332 0.0 2.0 0.00 0.00 0.00 78 1026.5
20260831110519 52 332 0.0 2.0 0.00 0.00 0.00 78 1026.6
20260831110019 52 323 0.0 2.0 0.00 0.00 0.00 78 1026.7
20260831105516 52 302 1.0 2.0 0.00 0.00 0.00 77 1026.6
20260831105016 53 173 0.0 0.0 0.00 0.00 0.00 77 1026.6
20260831104527 53 173 0.0 0.0 0.00 0.00 0.00 77 1026.7
20260831104015 53 173 0.0 0.0 0.00 0.00 0.00 77 1026.7
20260831103518 54 173 0.0 0.0 0.00 0.00 0.00 77 1026.7
20260831103115 54 173 0.0 0.0 0.00 0.00 0.00 76 1026.7
20260831102508 54 173 0.0 0.0 0.00 0.00 0.00 76 1026.7
20260831102006 55 173 0.0 0.0 0.00 0.00 0.00 76 1026.7
20260831101506 55 173 0.0 0.0 0.00 0.00 0.00 76 1026.7
20260831101005 55 173 0.0 0.0 0.00 0.00 0.00 75 1026.9
20260831100506 56 173 0.0 1.0 0.00 0.00 0.00 75 1026.8
20260831100006 56 173 0.0 1.0 0.00 0.00 0.00 75 1026.8
20260831095512 56 173 0.0 1.0 0.00 0.00 0.00 74 1026.8
20260831095005 57 173 0.0 1.0 0.00 0.00 0.00 74 1026.9
20260831094506 57 173 0.0 1.0 0.00 0.00 0.00 73 1026.8
20260831094005 57 173 0.0 1.0 0.00 0.00 0.00 73 1026.9
20260831093508 58 173 0.0 0.0 0.00 0.00 0.00 72 1026.9
20260831093106 58 173 0.0 0.0 0.00 0.00 0.00 71 1026.9
20260831092512 58 173 0.0 0.0 0.00 0.00 0.00 70 1026.9
20260831092015 59 173 0.0 0.0 0.00 0.00 0.00 70 1026.9
20260831091512 59 173 0.0 0.0 0.00 0.00 0.00 70 1027.0
20260831091012 59 173 0.0 0.0 0.00 0.00 0.00 69 1027.0
20260831090513 60 173 0.0 1.0 0.00 0.00 0.00 68 1027.0
20260831090012 60 173 0.0 1.0 0.00 0.00 0.00 68 1026.9
20260831085512 60 173 0.0 1.0 0.00 0.00 0.00 68 1027.0
20260831085011 61 173 0.0 1.0 0.00 0.00 0.00 68 1026.9
20260831084511 61 173 0.0 1.0 0.00 0.00 0.00 67 1027.0
20260831084011 61 173 0.0 3.0 0.00 0.00 0.00 67 1027.0
20260831083511 62 173 0.0 3.0 0.00 0.00 0.00 67 1027.0
20260831083113 62 163 0.0 2.0 0.00 0.00 0.00 66 1027.0
20260831082504 63 163 0.0 2.0 0.00 0.00 0.00 65 1027.0
20260831082005 63 163 0.0 1.0 0.00 0.00 0.00 65 1027.0
20260831081506 63 163 0.0 2.0 0.00 0.00 0.00 65 1027.0
20260831081008 64 163 0.0 3.0 0.00 0.00 0.00 64 1026.9
20260831080505 64 162 0.0 5.0 0.00 0.00 0.00 64 1026.9
20260831080004 64 163 1.0 5.0 0.00 0.00 0.00 63 1026.9
20260831075508 65 178 0.0 3.0 0.00 0.00 0.00 62 1026.9
20260831075004 65 157 0.0 3.0 0.00 0.00 0.00 61 1026.9
20260831074504 65 158 0.0 3.0 0.00 0.00 0.00 61 1026.9
20260831074006 65 157 1.0 3.0 0.00 0.00 0.00 60 1026.9
20260831073504 66 157 0.0 3.0 0.00 0.00 0.00 60 1026.9
20260831073105 66 158 1.0 3.0 0.00 0.00 0.00 59 1026.8
20260831072505 66 158 1.0 5.0 0.00 0.00 0.00 59 1026.8
20260831072005 67 177 1.0 5.0 0.00 0.00 0.00 59 1026.8
20260831071510 67 133 1.0 4.0 0.00 0.00 0.00 58 1026.8
20260831071005 67 175 1.0 5.0 0.00 0.00 0.00 58 1026.9
20260831070505 67 132 2.0 4.0 0.00 0.00 0.00 57 1026.9
20260831070005 68 193 2.0 5.0 0.00 0.00 0.00 56 1026.9
20260831065506 68 148 1.0 5.0 0.00 0.00 0.00 55 1026.8
20260831065005 68 156 2.0 5.0 0.00 0.00 0.00 54 1026.8
20260831064504 68 92 2.0 4.0 0.00 0.00 0.00 54 1026.9
20260831064003 68 161 2.0 4.0 0.00 0.00 0.00 53 1026.9
20260831063504 69 136 1.0 4.0 0.00 0.00 0.00 52 1026.9
20260831063116 69 132 1.0 4.0 0.00 0.00 0.00 52 1027.0
20260831062502 69 144 1.0 4.0 0.00 0.00 0.00 52 1027.1
20260831062001 69 63 2.0 4.0 0.00 0.00 0.00 52 1027.1
20260831061501 69 158 1.0 5.0 0.00 0.00 0.00 51 1027.1
20260831061001 69 84 2.0 4.0 0.00 0.00 0.00 50 1027.2
20260831060601 69 125 1.0 6.0 0.00 0.00 0.00 49 1027.2
20260831060104 69 98 1.0 6.0 0.00 0.00 0.00 49 1027.3
20260831055559 69 120 2.0 6.0 0.00 0.00 0.00 49 1027.3
20260831055059 69 131 1.0 5.0 0.00 0.00 0.00 49 1027.3
20260831054601 69 140 0.0 3.0 0.00 0.00 0.00 47 1027.4
20260831054058 69 178 1.0 5.0 0.00 0.00 0.00 47 1027.5
20260831053557 69 148 1.0 6.0 0.00 0.00 0.00 47 1027.6
20260831053114 69 127 0.0 3.0 0.00 0.00 0.00 47 1027.6
20260831052559 69 127 1.0 3.0 0.00 0.00 0.00 47 1027.6
20260831052101 69 128 2.0 3.0 0.00 0.00 0.00 47 1027.6
20260831051557 69 183 1.0 4.0 0.00 0.00 0.00 47 1027.7
20260831051057 69 136 2.0 4.0 0.00 0.00 0.00 48 1027.7
20260831050556 69 150 1.0 4.0 0.00 0.00 0.00 47 1027.7
20260831050109 69 123 1.0 4.0 0.00 0.00 0.00 48 1027.8
20260831045554 68 94 1.0 3.0 0.00 0.00 0.00 49 1027.9
20260831045052 68 86 1.0 4.0 0.00 0.00 0.00 50 1027.9
20260831044552 68 94 1.0 4.0 0.00 0.00 0.00 50 1028.1
20260831044051 68 75 1.0 3.0 0.00 0.00 0.00 53 1028.2
20260831043550 68 5 0.0 3.0 0.00 0.00 0.00 51 1028.3
20260831043053 67 140 2.0 4.0 0.00 0.00 0.00 53 1028.4
20260831042547 67 142 1.0 4.0 0.00 0.00 0.00 54 1028.4
20260831042046 67 195 1.0 4.0 0.00 0.00 0.00 53 1028.5
20260831041556 67 156 1.0 4.0 0.00 0.00 0.00 54 1028.5
20260831041045 66 59 0.0 4.0 0.00 0.00 0.00 53 1028.6
20260831040545 66 59 1.0 4.0 0.00 0.00 0.00 54 1028.7
20260831040042 66 110 0.0 4.0 0.00 0.00 0.00 55 1028.8
20260831035543 66 208 1.0 4.0 0.00 0.00 0.00 56 1028.8
20260831035040 66 140 1.0 3.0 0.00 0.00 0.00 56 1029.0
20260831034542 66 61 1.0 3.0 0.00 0.00 0.00 56 1029.1
20260831034038 66 82 1.0 3.0 0.00 0.00 0.00 57 1029.2
20260831033539 65 63 1.0 4.0 0.00 0.00 0.00 56 1029.3
20260831033036 65 214 1.0 7.0 0.00 0.00 0.00 58 1029.4
20260831032539 65 196 1.0 7.0 0.00 0.00 0.00 58 1029.4
20260831032039 64 194 1.0 3.0 0.00 0.00 0.00 60 1029.5
20260831031546 64 178 0.0 5.0 0.00 0.00 0.00 60 1029.6
20260831031036 64 178 1.0 5.0 0.00 0.00 0.00 60 1029.7
20260831030534 64 133 2.0 4.0 0.00 0.00 0.00 60 1029.8
20260831030034 63 103 0.0 4.0 0.00 0.00 0.00 61 1029.8
20260831025531 63 90 1.0 4.0 0.00 0.00 0.00 62 1029.9
20260831025030 63 163 1.0 4.0 0.00 0.00 0.00 61 1030.0
20260831024531 62 82 0.0 4.0 0.00 0.00 0.00 62 1030.1
20260831024028 62 125 2.0 5.0 0.00 0.00 0.00 63 1030.2
20260831023530 62 78 3.0 5.0 0.00 0.00 0.00 65 1030.3
20260831023026 62 134 1.0 4.0 0.00 0.00 0.00 66 1030.5
20260831022524 62 134 1.0 4.0 0.00 0.00 0.00 66 1030.5
20260831022023 62 67 1.0 6.0 0.00 0.00 0.00 66 1030.6
20260831021522 62 147 2.0 6.0 0.00 0.00 0.00 66 1030.7
20260831021021 61 129 1.0 4.0 0.00 0.00 0.00 67 1030.8
20260831020522 61 156 2.0 5.0 0.00 0.00 0.00 67 1030.9
20260831020019 61 163 0.0 4.0 0.00 0.00 0.00 66 1030.9
20260831015523 61 149 1.0 6.0 0.00 0.00 0.00 67 1031.1
20260831015016 61 170 2.0 6.0 0.00 0.00 0.00 68 1031.2
20260831014515 61 196 3.0 5.0 0.00 0.00 0.00 68 1031.3
20260831014014 60 148 2.0 4.0 0.00 0.00 0.00 68 1031.4
20260831013513 60 113 2.0 4.0 0.00 0.00 0.00 68 1031.4
20260831013028 60 163 1.0 4.0 0.00 0.00 0.00 68 1031.5
20260831012518 60 203 2.0 4.0 0.00 0.00 0.00 69 1031.5
20260831012017 59 191 2.0 5.0 0.00 0.00 0.00 70 1031.6
20260831011519 59 136 2.0 5.0 0.00 0.00 0.00 72 1031.6
20260831011013 59 181 1.0 5.0 0.00 0.00 0.00 71 1031.6
20260831010512 58 197 1.0 5.0 0.00 0.00 0.00 71 1031.7